Year,Month,Day,Hour,Minute,Value (Times are PST for temperature in C)
2009,09,28,00,00,7.80
2009,09,28,00,01,7.70
2009,09,28,00,02,7.70
2009,09,28,00,03,7.70
2009,09,28,00,04,7.70
2009,09,28,00,05,7.60
2009,09,28,00,06,7.60
2009,09,28,00,07,7.60
2009,09,28,00,08,7.60
2009,09,28,00,09,7.50
2009,09,28,00,10,7.50
2009,09,28,00,11,7.50
2009,09,28,00,12,7.50
2009,09,28,00,13,7.50
2009,09,28,00,14,7.50
2009,09,28,00,15,7.40
2009,09,28,00,16,7.50
2009,09,28,00,17,7.50
2009,09,28,00,18,7.50
2009,09,28,00,19,7.50
2009,09,28,00,20,7.50
2009,09,28,00,21,7.50
2009,09,28,00,22,7.50
2009,09,28,00,23,7.40
2009,09,28,00,24,7.40
2009,09,28,00,25,7.40
2009,09,28,00,26,7.40
2009,09,28,00,27,7.40
2009,09,28,00,28,7.40
2009,09,28,00,29,7.40
2009,09,28,00,30,7.40
2009,09,28,00,31,7.40
2009,09,28,00,32,7.30
2009,09,28,00,33,7.30
2009,09,28,00,34,7.30
2009,09,28,00,35,7.30
2009,09,28,00,36,7.30
2009,09,28,00,37,7.30
2009,09,28,00,38,7.30
2009,09,28,00,39,7.20
2009,09,28,00,40,7.20
2009,09,28,00,41,7.20
2009,09,28,00,42,7.20
2009,09,28,00,43,7.10
2009,09,28,00,44,7.10
2009,09,28,00,45,7.10
2009,09,28,00,46,7.10
2009,09,28,00,47,7.00
2009,09,28,00,48,7.00
2009,09,28,00,49,7.00
2009,09,28,00,50,7.00
2009,09,28,00,51,7.00
2009,09,28,00,52,7.00
2009,09,28,00,53,6.90
2009,09,28,00,54,6.90
2009,09,28,00,55,6.90
2009,09,28,00,56,6.90
2009,09,28,00,57,6.90
2009,09,28,00,58,6.90
2009,09,28,00,59,6.90
2009,09,28,01,00,6.80
2009,09,28,01,01,6.80
2009,09,28,01,02,6.80
2009,09,28,01,03,6.80
2009,09,28,01,04,6.80
2009,09,28,01,05,6.80
2009,09,28,01,06,6.80
2009,09,28,01,07,6.80
2009,09,28,01,08,6.80
2009,09,28,01,09,6.80
2009,09,28,01,10,6.80
2009,09,28,01,11,6.80
2009,09,28,01,12,6.80
2009,09,28,01,13,6.80
2009,09,28,01,14,6.80
2009,09,28,01,15,6.80
2009,09,28,01,16,6.80
2009,09,28,01,17,6.80
2009,09,28,01,18,6.80
2009,09,28,01,19,6.70
2009,09,28,01,20,6.70
2009,09,28,01,21,6.70
2009,09,28,01,22,6.70
2009,09,28,01,23,6.70
2009,09,28,01,24,6.70
2009,09,28,01,25,6.70
2009,09,28,01,26,6.60
2009,09,28,01,27,6.60
2009,09,28,01,28,6.60
2009,09,28,01,29,6.60
2009,09,28,01,30,6.60
2009,09,28,01,31,6.60
2009,09,28,01,32,6.60
2009,09,28,01,33,6.60
2009,09,28,01,34,6.50
2009,09,28,01,35,6.40
2009,09,28,01,36,6.40
2009,09,28,01,37,6.40
2009,09,28,01,38,6.40
2009,09,28,01,39,6.40
2009,09,28,01,40,6.40
2009,09,28,01,41,6.40
2009,09,28,01,42,6.40
2009,09,28,01,43,6.40
2009,09,28,01,44,6.40
2009,09,28,01,45,6.40
2009,09,28,01,46,6.30
2009,09,28,01,47,6.30
2009,09,28,01,48,6.30
2009,09,28,01,49,6.30
2009,09,28,01,50,6.30
2009,09,28,01,51,6.30
2009,09,28,01,52,6.30
2009,09,28,01,53,6.30
2009,09,28,01,54,6.30
2009,09,28,01,55,6.30
2009,09,28,01,56,6.30
2009,09,28,01,57,6.30
2009,09,28,01,58,6.30
2009,09,28,01,59,6.30
2009,09,28,02,00,6.30
2009,09,28,02,01,6.20
2009,09,28,02,02,6.20
2009,09,28,02,03,6.20
2009,09,28,02,04,6.20
2009,09,28,02,05,6.20
2009,09,28,02,06,6.20
2009,09,28,02,07,6.20
2009,09,28,02,08,6.20
2009,09,28,02,09,6.20
2009,09,28,02,10,6.20
2009,09,28,02,11,6.20
2009,09,28,02,12,6.20
2009,09,28,02,13,6.20
2009,09,28,02,14,6.20
2009,09,28,02,15,6.20
2009,09,28,02,16,6.20
2009,09,28,02,17,6.20
2009,09,28,02,18,6.10
2009,09,28,02,19,6.10
2009,09,28,02,20,6.10
2009,09,28,02,21,6.10
2009,09,28,02,22,6.10
2009,09,28,02,23,6.00
2009,09,28,02,24,6.00
2009,09,28,02,25,6.00
2009,09,28,02,26,6.00
2009,09,28,02,27,6.00
2009,09,28,02,28,6.00
2009,09,28,02,29,6.00
2009,09,28,02,30,5.90
2009,09,28,02,31,5.90
2009,09,28,02,32,5.90
2009,09,28,02,33,5.90
2009,09,28,02,34,5.90
2009,09,28,02,35,5.80
2009,09,28,02,36,5.80
2009,09,28,02,37,5.80
2009,09,28,02,38,5.80
2009,09,28,02,39,5.80
2009,09,28,02,40,5.70
2009,09,28,02,41,5.70
2009,09,28,02,42,5.80
2009,09,28,02,43,5.80
2009,09,28,02,44,5.80
2009,09,28,02,45,5.80
2009,09,28,02,46,5.80
2009,09,28,02,47,5.80
2009,09,28,02,48,5.90
2009,09,28,02,49,5.90
2009,09,28,02,50,5.90
2009,09,28,02,51,5.90
2009,09,28,02,52,5.90
2009,09,28,02,53,5.90
2009,09,28,02,54,5.90
2009,09,28,02,55,6.00
2009,09,28,02,56,6.00
2009,09,28,02,57,6.00
2009,09,28,02,58,6.00
2009,09,28,02,59,6.00
2009,09,28,03,00,6.00
2009,09,28,03,01,6.00
2009,09,28,03,02,6.00
2009,09,28,03,03,6.00
2009,09,28,03,04,6.00
2009,09,28,03,05,6.00
2009,09,28,03,06,6.00
2009,09,28,03,07,6.00
2009,09,28,03,08,6.00
2009,09,28,03,09,6.00
2009,09,28,03,10,6.00
2009,09,28,03,11,6.10
2009,09,28,03,12,6.10
2009,09,28,03,13,6.00
2009,09,28,03,14,6.00
2009,09,28,03,15,6.00
2009,09,28,03,16,6.00
2009,09,28,03,17,5.90
2009,09,28,03,18,5.90
2009,09,28,03,19,5.90
2009,09,28,03,20,5.90
2009,09,28,03,21,5.90
2009,09,28,03,22,5.90
2009,09,28,03,23,5.80
2009,09,28,03,24,5.80
2009,09,28,03,25,5.80
2009,09,28,03,26,5.70
2009,09,28,03,27,5.70
2009,09,28,03,28,5.70
2009,09,28,03,29,5.70
2009,09,28,03,30,5.70
2009,09,28,03,31,5.70
2009,09,28,03,32,5.70
2009,09,28,03,33,5.60
2009,09,28,03,34,5.60
2009,09,28,03,35,5.60
2009,09,28,03,36,5.50
2009,09,28,03,37,5.50
2009,09,28,03,38,5.50
2009,09,28,03,39,5.50
2009,09,28,03,40,5.50
2009,09,28,03,41,5.50
2009,09,28,03,42,5.50
2009,09,28,03,43,5.50
2009,09,28,03,44,5.50
2009,09,28,03,45,5.50
2009,09,28,03,46,5.50
2009,09,28,03,47,5.50
2009,09,28,03,48,5.50
2009,09,28,03,49,5.60
2009,09,28,03,50,5.60
2009,09,28,03,51,5.60
2009,09,28,03,52,5.70
2009,09,28,03,53,5.70
2009,09,28,03,54,5.70
2009,09,28,03,55,5.70
2009,09,28,03,56,5.70
2009,09,28,03,57,5.70
2009,09,28,03,58,5.70
2009,09,28,03,59,5.70
2009,09,28,04,00,5.70
2009,09,28,04,01,5.70
2009,09,28,04,02,5.60
2009,09,28,04,03,5.60
2009,09,28,04,04,5.60
2009,09,28,04,05,5.60
2009,09,28,04,06,5.60
2009,09,28,04,07,5.70
2009,09,28,04,08,5.70
2009,09,28,04,09,5.70
2009,09,28,04,10,5.70
2009,09,28,04,11,5.70
2009,09,28,04,12,5.80
2009,09,28,04,13,5.80
2009,09,28,04,14,5.90
2009,09,28,04,15,5.90
2009,09,28,04,16,5.90
2009,09,28,04,17,5.90
2009,09,28,04,18,6.00
2009,09,28,04,19,6.00
2009,09,28,04,20,6.00
2009,09,28,04,21,6.00
2009,09,28,04,22,6.00
2009,09,28,04,23,6.00
2009,09,28,04,24,6.00
2009,09,28,04,25,6.00
2009,09,28,04,26,6.00
2009,09,28,04,27,5.90
2009,09,28,04,28,5.90
2009,09,28,04,29,5.80
2009,09,28,04,30,5.80
2009,09,28,04,31,5.70
2009,09,28,04,32,5.70
2009,09,28,04,33,5.70
2009,09,28,04,34,5.60
2009,09,28,04,35,5.60
2009,09,28,04,36,5.60
2009,09,28,04,37,5.50
2009,09,28,04,38,5.50
2009,09,28,04,39,5.50
2009,09,28,04,40,5.50
2009,09,28,04,41,5.50
2009,09,28,04,42,5.40
2009,09,28,04,43,5.40
2009,09,28,04,44,5.40
2009,09,28,04,45,5.30
2009,09,28,04,46,5.30
2009,09,28,04,47,5.30
2009,09,28,04,48,5.30
2009,09,28,04,49,5.30
2009,09,28,04,50,5.30
2009,09,28,04,51,5.30
2009,09,28,04,52,5.30
2009,09,28,04,53,5.30
2009,09,28,04,54,5.30
2009,09,28,04,55,5.30
2009,09,28,04,56,5.20
2009,09,28,04,57,5.20
2009,09,28,04,58,5.10
2009,09,28,04,59,5.10
2009,09,28,05,00,5.10
2009,09,28,05,01,5.10
2009,09,28,05,02,5.10
2009,09,28,05,03,5.10
2009,09,28,05,04,5.10
2009,09,28,05,05,5.10
2009,09,28,05,06,5.10
2009,09,28,05,07,5.10
2009,09,28,05,08,5.10
2009,09,28,05,09,5.10
2009,09,28,05,10,5.10
2009,09,28,05,11,5.10
2009,09,28,05,12,5.10
2009,09,28,05,13,5.10
2009,09,28,05,14,5.20
2009,09,28,05,15,5.10
2009,09,28,05,16,5.10
2009,09,28,05,17,5.10
2009,09,28,05,18,5.10
2009,09,28,05,19,5.10
2009,09,28,05,20,5.10
2009,09,28,05,21,5.10
2009,09,28,05,22,5.10
2009,09,28,05,23,5.10
2009,09,28,05,24,5.10
2009,09,28,05,25,5.10
2009,09,28,05,26,5.10
2009,09,28,05,27,5.10
2009,09,28,05,28,5.10
2009,09,28,05,29,5.10
2009,09,28,05,30,5.10
2009,09,28,05,31,5.10
2009,09,28,05,32,5.10
2009,09,28,05,33,5.10
2009,09,28,05,34,5.10
2009,09,28,05,35,5.00
2009,09,28,05,36,4.90
2009,09,28,05,37,4.90
2009,09,28,05,38,4.90
2009,09,28,05,39,4.90
2009,09,28,05,40,4.90
2009,09,28,05,41,4.90
2009,09,28,05,42,4.90
2009,09,28,05,43,4.90
2009,09,28,05,44,4.90
2009,09,28,05,45,4.90
2009,09,28,05,46,4.90
2009,09,28,05,47,4.90
2009,09,28,05,48,4.90
2009,09,28,05,49,4.90
2009,09,28,05,50,4.90
2009,09,28,05,51,4.90
2009,09,28,05,52,4.90
2009,09,28,05,53,4.90
2009,09,28,05,54,4.90
2009,09,28,05,55,4.90
2009,09,28,05,56,5.00
2009,09,28,05,57,5.10
2009,09,28,05,58,5.10
2009,09,28,05,59,5.10
2009,09,28,06,00,5.10
2009,09,28,06,01,5.10
2009,09,28,06,02,5.10
2009,09,28,06,03,5.10
2009,09,28,06,04,5.10
2009,09,28,06,05,5.10
2009,09,28,06,06,5.10
2009,09,28,06,07,5.10
2009,09,28,06,08,5.20
2009,09,28,06,09,5.20
2009,09,28,06,10,5.20
2009,09,28,06,11,5.10
2009,09,28,06,12,5.10
2009,09,28,06,13,5.10
2009,09,28,06,14,5.10
2009,09,28,06,15,5.10
2009,09,28,06,16,5.10
2009,09,28,06,17,5.10
2009,09,28,06,18,5.00
2009,09,28,06,19,4.90
2009,09,28,06,20,5.00
2009,09,28,06,21,5.00
2009,09,28,06,22,5.00
2009,09,28,06,23,4.90
2009,09,28,06,24,4.90
2009,09,28,06,25,4.90
2009,09,28,06,26,4.90
2009,09,28,06,27,4.90
2009,09,28,06,28,4.90
2009,09,28,06,29,4.90
2009,09,28,06,30,4.90
2009,09,28,06,31,4.90
2009,09,28,06,32,4.80
2009,09,28,06,33,4.80
2009,09,28,06,34,4.70
2009,09,28,06,35,4.70
2009,09,28,06,36,4.70
2009,09,28,06,37,4.70
2009,09,28,06,38,4.70
2009,09,28,06,39,4.60
2009,09,28,06,40,4.60
2009,09,28,06,41,4.60
2009,09,28,06,42,4.60
2009,09,28,06,43,4.60
2009,09,28,06,44,4.60
2009,09,28,06,45,4.60
2009,09,28,06,46,4.60
2009,09,28,06,47,4.60
2009,09,28,06,48,4.60
2009,09,28,06,49,4.60
2009,09,28,06,50,4.60
2009,09,28,06,51,4.60
2009,09,28,06,52,4.60
2009,09,28,06,53,4.60
2009,09,28,06,54,4.60
2009,09,28,06,55,4.60
2009,09,28,06,56,4.60
2009,09,28,06,57,4.60
2009,09,28,06,58,4.60
2009,09,28,06,59,4.60
2009,09,28,07,00,4.60
2009,09,28,07,01,4.70
2009,09,28,07,02,4.70
2009,09,28,07,03,4.70
2009,09,28,07,04,4.80
2009,09,28,07,05,4.80
2009,09,28,07,06,4.80
2009,09,28,07,07,4.90
2009,09,28,07,08,4.90
2009,09,28,07,09,4.90
2009,09,28,07,10,4.90
2009,09,28,07,11,4.90
2009,09,28,07,12,4.90
2009,09,28,07,13,4.90
2009,09,28,07,14,4.90
2009,09,28,07,15,4.90
2009,09,28,07,16,4.90
2009,09,28,07,17,4.90
2009,09,28,07,18,4.90
2009,09,28,07,19,4.90
2009,09,28,07,20,4.90
2009,09,28,07,21,4.90
2009,09,28,07,22,4.80
2009,09,28,07,23,4.80
2009,09,28,07,24,4.80
2009,09,28,07,25,4.80
2009,09,28,07,26,4.80
2009,09,28,07,27,4.80
2009,09,28,07,28,4.80
2009,09,28,07,29,4.80
2009,09,28,07,30,4.80
2009,09,28,07,31,4.90
2009,09,28,07,32,4.90
2009,09,28,07,33,4.90
2009,09,28,07,34,4.90
2009,09,28,07,35,5.00
2009,09,28,07,36,5.10
2009,09,28,07,37,5.10
2009,09,28,07,38,5.10
2009,09,28,07,39,5.10
2009,09,28,07,40,5.20
2009,09,28,07,41,5.20
2009,09,28,07,42,5.30
2009,09,28,07,43,5.30
2009,09,28,07,44,5.30
2009,09,28,07,45,5.30
2009,09,28,07,46,5.30
2009,09,28,07,47,5.30
2009,09,28,07,48,5.40
2009,09,28,07,49,5.40
2009,09,28,07,50,5.50
2009,09,28,07,51,5.50
2009,09,28,07,52,5.60
2009,09,28,07,53,5.60
2009,09,28,07,54,5.70
2009,09,28,07,55,5.70
2009,09,28,07,56,5.70
2009,09,28,07,57,5.80
2009,09,28,07,58,5.90
2009,09,28,07,59,6.00
2009,09,28,08,00,6.00
2009,09,28,08,01,6.10
2009,09,28,08,02,6.20
2009,09,28,08,03,6.20
2009,09,28,08,04,6.30
2009,09,28,08,05,6.40
2009,09,28,08,06,6.40
2009,09,28,08,07,6.40
2009,09,28,08,08,6.40
2009,09,28,08,09,6.50
2009,09,28,08,10,6.70
2009,09,28,08,11,6.70
2009,09,28,08,12,6.80
2009,09,28,08,13,6.90
2009,09,28,08,14,7.00
2009,09,28,08,15,7.20
2009,09,28,08,16,7.20
2009,09,28,08,17,7.30
2009,09,28,08,18,7.30
2009,09,28,08,19,7.30
2009,09,28,08,20,7.40
2009,09,28,08,21,7.40
2009,09,28,08,22,7.50
2009,09,28,08,23,7.60
2009,09,28,08,24,7.70
2009,09,28,08,25,7.80
2009,09,28,08,26,7.80
2009,09,28,08,27,7.80
2009,09,28,08,28,7.90
2009,09,28,08,29,7.90
2009,09,28,08,30,8.00
2009,09,28,08,31,8.10
2009,09,28,08,32,8.20
2009,09,28,08,33,8.30
2009,09,28,08,34,8.40
2009,09,28,08,35,8.50
2009,09,28,08,36,8.50
2009,09,28,08,37,8.60
2009,09,28,08,38,8.70
2009,09,28,08,39,8.80
2009,09,28,08,40,8.90
2009,09,28,08,41,9.00
2009,09,28,08,42,9.00
2009,09,28,08,43,9.10
2009,09,28,08,44,9.10
2009,09,28,08,45,9.20
2009,09,28,08,46,9.30
2009,09,28,08,47,9.40
2009,09,28,08,48,9.50
2009,09,28,08,49,9.60
2009,09,28,08,50,9.70
2009,09,28,08,51,9.80
2009,09,28,08,52,9.90
2009,09,28,08,53,9.90
2009,09,28,08,54,9.90
2009,09,28,08,55,10.00
2009,09,28,08,56,10.10
2009,09,28,08,57,10.10
2009,09,28,08,58,10.10
2009,09,28,08,59,10.10
2009,09,28,09,00,10.20
2009,09,28,09,01,10.30
2009,09,28,09,02,10.30
2009,09,28,09,03,10.40
2009,09,28,09,04,10.50
2009,09,28,09,05,10.60
2009,09,28,09,06,10.70
2009,09,28,09,07,10.80
2009,09,28,09,08,10.90
2009,09,28,09,09,11.00
2009,09,28,09,10,11.20
2009,09,28,09,11,11.40
2009,09,28,09,12,11.60
2009,09,28,09,13,11.80
2009,09,28,09,14,11.90
2009,09,28,09,15,12.10
2009,09,28,09,16,12.20
2009,09,28,09,17,12.40
2009,09,28,09,18,12.50
2009,09,28,09,19,12.50
2009,09,28,09,20,12.40
2009,09,28,09,21,12.40
2009,09,28,09,22,12.50
2009,09,28,09,23,12.50
2009,09,28,09,24,12.50
2009,09,28,09,25,12.60
2009,09,28,09,26,12.60
2009,09,28,09,27,12.70
2009,09,28,09,28,12.70
2009,09,28,09,29,12.80
2009,09,28,09,30,12.80
2009,09,28,09,31,12.80
2009,09,28,09,32,12.90
2009,09,28,09,33,13.00
2009,09,28,09,34,13.00
2009,09,28,09,35,13.10
2009,09,28,09,36,13.20
2009,09,28,09,37,13.30
2009,09,28,09,38,13.40
2009,09,28,09,39,13.50
2009,09,28,09,40,13.50
2009,09,28,09,41,13.50
2009,09,28,09,42,13.50
2009,09,28,09,43,13.50
2009,09,28,09,44,13.50
2009,09,28,09,45,13.50
2009,09,28,09,46,13.40
2009,09,28,09,47,13.40
2009,09,28,09,48,13.40
2009,09,28,09,49,13.40
2009,09,28,09,50,13.50
2009,09,28,09,51,13.50
2009,09,28,09,52,13.50
2009,09,28,09,53,13.60
2009,09,28,09,54,13.60
2009,09,28,09,55,13.60
2009,09,28,09,56,13.50
2009,09,28,09,57,13.50
2009,09,28,09,58,13.40
2009,09,28,09,59,13.40
2009,09,28,10,00,13.30
2009,09,28,10,01,13.30
2009,09,28,10,02,13.30
2009,09,28,10,03,13.40
2009,09,28,10,04,13.40
2009,09,28,10,05,13.40
2009,09,28,10,06,13.40
2009,09,28,10,07,13.50
2009,09,28,10,08,13.50
2009,09,28,10,09,13.60
2009,09,28,10,10,13.60
2009,09,28,10,11,13.70
2009,09,28,10,12,13.70
2009,09,28,10,13,13.80
2009,09,28,10,14,13.90
2009,09,28,10,15,14.00
2009,09,28,10,16,14.00
2009,09,28,10,17,14.10
2009,09,28,10,18,14.20
2009,09,28,10,19,14.30
2009,09,28,10,20,14.40
2009,09,28,10,21,14.50
2009,09,28,10,22,14.60
2009,09,28,10,23,14.70
2009,09,28,10,24,14.80
2009,09,28,10,25,14.80
2009,09,28,10,26,14.90
2009,09,28,10,27,14.90
2009,09,28,10,28,15.00
2009,09,28,10,29,15.20
2009,09,28,10,30,15.30
2009,09,28,10,31,15.30
2009,09,28,10,32,15.30
2009,09,28,10,33,15.40
2009,09,28,10,34,15.40
2009,09,28,10,35,15.50
2009,09,28,10,36,15.50
2009,09,28,10,37,15.50
2009,09,28,10,38,15.50
2009,09,28,10,39,15.50
2009,09,28,10,40,15.50
2009,09,28,10,41,15.50
2009,09,28,10,42,15.50
2009,09,28,10,43,15.60
2009,09,28,10,44,15.60
2009,09,28,10,45,15.50
2009,09,28,10,46,15.50
2009,09,28,10,47,15.50
2009,09,28,10,48,15.50
2009,09,28,10,49,15.50
2009,09,28,10,50,15.60
2009,09,28,10,51,15.60
2009,09,28,10,52,15.60
2009,09,28,10,53,15.60
2009,09,28,10,54,15.60
2009,09,28,10,55,15.60
2009,09,28,10,56,15.60
2009,09,28,10,57,15.60
2009,09,28,10,58,15.60
2009,09,28,10,59,15.60
2009,09,28,11,00,15.60
2009,09,28,11,01,15.60
2009,09,28,11,02,15.60
2009,09,28,11,03,15.60
2009,09,28,11,04,15.60
2009,09,28,11,05,15.60
2009,09,28,11,06,15.60
2009,09,28,11,07,15.50
2009,09,28,11,08,15.60
2009,09,28,11,09,15.60
2009,09,28,11,10,15.60
2009,09,28,11,11,15.60
2009,09,28,11,12,15.60
2009,09,28,11,13,15.60
2009,09,28,11,14,15.50
2009,09,28,11,15,15.50
2009,09,28,11,16,15.50
2009,09,28,11,17,15.50
2009,09,28,11,18,15.40
2009,09,28,11,19,15.40
2009,09,28,11,20,15.40
2009,09,28,11,21,15.30
2009,09,28,11,22,15.30
2009,09,28,11,23,15.30
2009,09,28,11,24,15.30
2009,09,28,11,25,15.30
2009,09,28,11,26,15.30
2009,09,28,11,27,15.30
2009,09,28,11,28,15.30
2009,09,28,11,29,15.30
2009,09,28,11,30,15.20
2009,09,28,11,31,15.20
2009,09,28,11,32,15.20
2009,09,28,11,33,15.10
2009,09,28,11,34,15.10
2009,09,28,11,35,15.10
2009,09,28,11,36,15.10
2009,09,28,11,37,15.00
2009,09,28,11,38,15.00
2009,09,28,11,39,15.00
2009,09,28,11,40,15.00
2009,09,28,11,41,15.00
2009,09,28,11,42,15.00
2009,09,28,11,43,15.00
2009,09,28,11,44,15.00
2009,09,28,11,45,15.00
2009,09,28,11,46,15.00
2009,09,28,11,47,15.00
2009,09,28,11,48,15.00
2009,09,28,11,49,14.90
2009,09,28,11,50,14.90
2009,09,28,11,51,15.00
2009,09,28,11,52,15.00
2009,09,28,11,53,15.00
2009,09,28,11,54,15.00
2009,09,28,11,55,15.00
2009,09,28,11,56,15.00
2009,09,28,11,57,15.00
2009,09,28,11,58,15.10
2009,09,28,11,59,15.10
2009,09,28,12,00,15.10
2009,09,28,12,01,15.10
2009,09,28,12,02,15.10
2009,09,28,12,03,15.20
2009,09,28,12,04,15.20
2009,09,28,12,05,15.20
2009,09,28,12,06,15.20
2009,09,28,12,07,15.30
2009,09,28,12,08,15.30
2009,09,28,12,09,15.30
2009,09,28,12,10,15.30
2009,09,28,12,11,15.30
2009,09,28,12,12,15.40
2009,09,28,12,13,15.40
2009,09,28,12,14,15.50
2009,09,28,12,15,15.50
2009,09,28,12,16,15.60
2009,09,28,12,17,15.60
2009,09,28,12,18,15.60
2009,09,28,12,19,15.60
2009,09,28,12,20,15.70
2009,09,28,12,21,15.70
2009,09,28,12,22,15.60
2009,09,28,12,23,15.70
2009,09,28,12,24,15.70
2009,09,28,12,25,15.70
2009,09,28,12,26,15.80
2009,09,28,12,27,15.80
2009,09,28,12,28,15.80
2009,09,28,12,29,15.80
2009,09,28,12,30,15.80
2009,09,28,12,31,15.80
2009,09,28,12,32,15.80
2009,09,28,12,33,15.80
2009,09,28,12,34,15.80
2009,09,28,12,35,15.80
2009,09,28,12,36,15.90
2009,09,28,12,37,15.90
2009,09,28,12,38,16.00
2009,09,28,12,39,16.10
2009,09,28,12,40,16.10
2009,09,28,12,41,16.10
2009,09,28,12,42,16.10
2009,09,28,12,43,16.10
2009,09,28,12,44,16.10
2009,09,28,12,45,16.10
2009,09,28,12,46,16.10
2009,09,28,12,47,16.20
2009,09,28,12,48,16.20
2009,09,28,12,49,16.30
2009,09,28,12,50,16.30
2009,09,28,12,51,16.40
2009,09,28,12,52,16.40
2009,09,28,12,53,16.40
2009,09,28,12,54,16.60
2009,09,28,12,55,16.60
2009,09,28,12,56,16.70
2009,09,28,12,57,16.70
2009,09,28,12,58,16.70
2009,09,28,12,59,16.70
2009,09,28,13,00,16.70
2009,09,28,13,01,16.60
2009,09,28,13,02,16.60
2009,09,28,13,03,16.60
2009,09,28,13,04,16.70
2009,09,28,13,05,16.70
2009,09,28,13,06,16.70
2009,09,28,13,07,16.70
2009,09,28,13,08,16.70
2009,09,28,13,09,16.70
2009,09,28,13,10,16.70
2009,09,28,13,11,16.70
2009,09,28,13,12,16.60
2009,09,28,13,13,16.50
2009,09,28,13,14,16.40
2009,09,28,13,15,16.40
2009,09,28,13,16,16.30
2009,09,28,13,17,16.30
2009,09,28,13,18,16.30
2009,09,28,13,19,16.20
2009,09,28,13,20,16.20
2009,09,28,13,21,16.20
2009,09,28,13,22,16.20
2009,09,28,13,23,16.20
2009,09,28,13,24,16.20
2009,09,28,13,25,16.20
2009,09,28,13,26,16.20
2009,09,28,13,27,16.10
2009,09,28,13,28,16.10
2009,09,28,13,29,16.10
2009,09,28,13,30,16.10
2009,09,28,13,31,16.10
2009,09,28,13,32,16.10
2009,09,28,13,33,16.20
2009,09,28,13,34,16.20
2009,09,28,13,35,16.20
2009,09,28,13,36,16.30
2009,09,28,13,37,16.30
2009,09,28,13,38,16.30
2009,09,28,13,39,16.30
2009,09,28,13,40,16.30
2009,09,28,13,41,16.40
2009,09,28,13,42,16.40
2009,09,28,13,43,16.40
2009,09,28,13,44,16.50
2009,09,28,13,45,16.60
2009,09,28,13,46,16.70
2009,09,28,13,47,16.90
2009,09,28,13,48,16.90
2009,09,28,13,49,17.00
2009,09,28,13,50,17.20
2009,09,28,13,51,17.10
2009,09,28,13,52,17.00
2009,09,28,13,53,16.70
2009,09,28,13,54,16.50
2009,09,28,13,55,16.30
2009,09,28,13,56,16.20
2009,09,28,13,57,16.20
2009,09,28,13,58,16.10
2009,09,28,13,59,16.10
2009,09,28,14,00,16.00
2009,09,28,14,01,15.80
2009,09,28,14,02,15.70
2009,09,28,14,03,15.70
2009,09,28,14,04,15.70
2009,09,28,14,05,15.60
2009,09,28,14,06,15.50
2009,09,28,14,07,15.50
2009,09,28,14,08,15.40
2009,09,28,14,09,15.20
2009,09,28,14,10,15.10
2009,09,28,14,11,15.00
2009,09,28,14,12,14.80
2009,09,28,14,13,14.70
2009,09,28,14,14,14.50
2009,09,28,14,15,14.50
2009,09,28,14,16,14.50
2009,09,28,14,17,14.50
2009,09,28,14,18,14.50
2009,09,28,14,19,14.40
2009,09,28,14,20,14.50
2009,09,28,14,21,14.50
2009,09,28,14,22,14.50
2009,09,28,14,23,14.50
2009,09,28,14,24,14.50
2009,09,28,14,25,14.60
2009,09,28,14,26,14.60
2009,09,28,14,27,14.60
2009,09,28,14,28,14.60
2009,09,28,14,29,14.70
2009,09,28,14,30,14.70
2009,09,28,14,31,14.70
2009,09,28,14,32,14.70
2009,09,28,14,33,14.70
2009,09,28,14,34,14.60
2009,09,28,14,35,14.70
2009,09,28,14,36,14.60
2009,09,28,14,37,14.50
2009,09,28,14,38,14.50
2009,09,28,14,39,14.50
2009,09,28,14,40,14.50
2009,09,28,14,41,14.40
2009,09,28,14,42,14.30
2009,09,28,14,43,14.30
2009,09,28,14,44,14.20
2009,09,28,14,45,14.30
2009,09,28,14,46,14.30
2009,09,28,14,47,14.40
2009,09,28,14,48,14.40
2009,09,28,14,49,14.40
2009,09,28,14,50,14.50
2009,09,28,14,51,14.50
2009,09,28,14,52,14.50
2009,09,28,14,53,14.50
2009,09,28,14,54,14.50
2009,09,28,14,55,14.50
2009,09,28,14,56,14.40
2009,09,28,14,57,14.40
2009,09,28,14,58,14.30
2009,09,28,14,59,14.20
2009,09,28,15,00,14.20
2009,09,28,15,01,14.20
2009,09,28,15,02,14.20
2009,09,28,15,03,14.20
2009,09,28,15,04,14.20
2009,09,28,15,05,14.20
2009,09,28,15,06,14.20
2009,09,28,15,07,14.30
2009,09,28,15,08,14.40
2009,09,28,15,09,14.50
2009,09,28,15,10,14.50
2009,09,28,15,11,14.60
2009,09,28,15,12,14.60
2009,09,28,15,13,14.60
2009,09,28,15,14,14.60
2009,09,28,15,15,14.60
2009,09,28,15,16,14.60
2009,09,28,15,17,14.60
2009,09,28,15,18,14.50
2009,09,28,15,19,14.50
2009,09,28,15,20,14.50
2009,09,28,15,21,14.50
2009,09,28,15,22,14.40
2009,09,28,15,23,14.40
2009,09,28,15,24,14.40
2009,09,28,15,25,14.40
2009,09,28,15,26,14.40
2009,09,28,15,27,14.40
2009,09,28,15,28,14.40
2009,09,28,15,29,14.50
2009,09,28,15,30,14.50
2009,09,28,15,31,14.50
2009,09,28,15,32,14.50
2009,09,28,15,33,14.50
2009,09,28,15,34,14.50
2009,09,28,15,35,14.40
2009,09,28,15,36,14.30
2009,09,28,15,37,14.30
2009,09,28,15,38,14.20
2009,09,28,15,39,14.20
2009,09,28,15,40,14.10
2009,09,28,15,41,14.00
2009,09,28,15,42,14.00
2009,09,28,15,43,13.90
2009,09,28,15,44,13.90
2009,09,28,15,45,13.80
2009,09,28,15,46,13.70
2009,09,28,15,47,13.60
2009,09,28,15,48,13.60
2009,09,28,15,49,13.50
2009,09,28,15,50,13.50
2009,09,28,15,51,13.40
2009,09,28,15,52,13.40
2009,09,28,15,53,13.30
2009,09,28,15,54,13.30
2009,09,28,15,55,13.30
2009,09,28,15,56,13.20
2009,09,28,15,57,13.20
2009,09,28,15,58,13.10
2009,09,28,15,59,13.00
2009,09,28,16,00,13.00
2009,09,28,16,01,12.90
2009,09,28,16,02,12.90
2009,09,28,16,03,12.80
2009,09,28,16,04,12.80
2009,09,28,16,05,12.80
2009,09,28,16,06,12.70
2009,09,28,16,07,12.60
2009,09,28,16,08,12.60
2009,09,28,16,09,12.50
2009,09,28,16,10,12.50
2009,09,28,16,11,12.40
2009,09,28,16,12,12.40
2009,09,28,16,13,12.30
2009,09,28,16,14,12.30
2009,09,28,16,15,12.30
2009,09,28,16,16,12.30
2009,09,28,16,17,12.20
2009,09,28,16,18,12.20
2009,09,28,16,19,12.10
2009,09,28,16,20,12.10
2009,09,28,16,21,12.00
2009,09,28,16,22,12.00
2009,09,28,16,23,12.00
2009,09,28,16,24,11.90
2009,09,28,16,25,11.80
2009,09,28,16,26,11.80
2009,09,28,16,27,11.80
2009,09,28,16,28,11.80
2009,09,28,16,29,11.80
2009,09,28,16,30,11.80
2009,09,28,16,31,11.80
2009,09,28,16,32,11.80
2009,09,28,16,33,11.80
2009,09,28,16,34,11.80
2009,09,28,16,35,11.70
2009,09,28,16,36,11.70
2009,09,28,16,37,11.70
2009,09,28,16,38,11.70
2009,09,28,16,39,11.70
2009,09,28,16,40,11.60
2009,09,28,16,41,11.60
2009,09,28,16,42,11.60
2009,09,28,16,43,11.60
2009,09,28,16,44,11.60
2009,09,28,16,45,11.60
2009,09,28,16,46,11.60
2009,09,28,16,47,11.60
2009,09,28,16,48,11.60
2009,09,28,16,49,11.60
2009,09,28,16,50,11.60
2009,09,28,16,51,11.60
2009,09,28,16,52,11.60
2009,09,28,16,53,11.60
2009,09,28,16,54,11.60
2009,09,28,16,55,11.60
2009,09,28,16,56,11.60
2009,09,28,16,57,11.50
2009,09,28,16,58,11.40
2009,09,28,16,59,11.40
2009,09,28,17,00,11.40
2009,09,28,17,01,11.40
2009,09,28,17,02,11.40
2009,09,28,17,03,11.40
2009,09,28,17,04,11.30
2009,09,28,17,05,11.30
2009,09,28,17,06,11.30
2009,09,28,17,07,11.30
2009,09,28,17,08,11.20
2009,09,28,17,09,11.20
2009,09,28,17,10,11.20
2009,09,28,17,11,11.20
2009,09,28,17,12,11.20
2009,09,28,17,13,11.20
2009,09,28,17,14,11.20
2009,09,28,17,15,11.20
2009,09,28,17,16,11.20
2009,09,28,17,17,11.20
2009,09,28,17,18,11.20
2009,09,28,17,19,11.10
2009,09,28,17,20,11.10
2009,09,28,17,21,11.10
2009,09,28,17,22,11.10
2009,09,28,17,23,11.10
2009,09,28,17,24,11.10
2009,09,28,17,25,11.10
2009,09,28,17,26,11.10
2009,09,28,17,27,11.10
2009,09,28,17,28,11.10
2009,09,28,17,29,11.10
2009,09,28,17,30,11.00
2009,09,28,17,31,10.90
2009,09,28,17,32,10.90
2009,09,28,17,33,10.90
2009,09,28,17,34,10.90
2009,09,28,17,35,10.90
2009,09,28,17,36,10.90
2009,09,28,17,37,10.90
2009,09,28,17,38,10.90
2009,09,28,17,39,10.90
2009,09,28,17,40,10.90
2009,09,28,17,41,10.80
2009,09,28,17,42,10.80